星链-11108 [DTC] (STARLINK-11108 [DTC] )

导读 | 星芒AI

STARLINK-11108 [DTC] 是SpaceX星链(Starlink)卫星互联网项目中的第11108颗卫星,属于低轨通信卫星,旨在为全球用户提供高速互联网服务。该卫星采用可重复使用设计,配备先进通信设备,支持宽带数据传输。其发射和运行有助于扩展星链网络的覆盖范围和稳定性,提升偏远地区的网络接入能力。该卫星由SpaceX自主研制和发射,是其构建全球卫星互联网基础设施的重要组成部分。

基本信息
目录编号:
59712
目录名称:
STARLINK-11108
国际标识:
2024-088E
轨道中心:
EARTH
卫星名称:
星链-11108 [DTC]
卫星全名:
星链-11108 [DTC] (STARLINK-11108 [DTC] )
卫星状态:
在轨 (已飞行582 天)
发射日期:
2024-05-10 UTC
国别 :
美国 (US)
星等 :
--
轨道信息
数据来源 国际轨道数据
星历时间: 2025-12-13T04:46:19+0800
13小时前
查看轨道信息
半长轴: 6737.845km
偏心率: 0.0001156
轨道倾角: 53.160°
近地点辐角 99.982°
升交点赤经 34.422°
平近点角 260.132°
近地点: 358.931km
远地点: 360.489km
周期: 91.736分钟
每日圈数: 15.697168
详细信息
固有亮度:
5
最大亮度:
0.6
卫星平台:
Starlink v2.0 mini
覆盖范围:
全球
运营商:
太空探索技术公司
运营商所在国:
美国
制造商(研发单位):
太空探索技术公司
制造商所在国:
美国
使用方式:
暂无
卫星简介
星链(Starlink)计划是由太空探索技术公司(SpaceX)提出的一个巨型低轨卫星互联网星座项目,计划在2019年至2024年间在太空搭建由约1.2万颗卫星组成的“星链”网络,其中1584颗将部署在地球上空550千米处的近地轨道,并从2020年开始工作。该卫星仍在工作。
2D轨道图
3D轨道图
轨道高度分析图
轨道倾角分析图
轨道综合分析图
查看轨道综合分析图